{"data":{"norad_id":66517,"epoch":"2026-05-24T21:32:36.894336Z","epoch_age_seconds":79819,"freshness":"FRESH","line1":"1 66517U 25265B   26144.89764924  .00009999  00000+0  37240-3 0  9995","line2":"2 66517  43.0004 207.9785 0002925 282.6290  77.4234 15.27577298 28766","mean_motion":15.27577298,"eccentricity":0.0002925,"inclination_deg":43.0004,"raan_deg":207.9785,"arg_perigee_deg":282.629,"mean_anomaly_deg":77.4234,"bstar":0.0003724,"rev_number":2876,"period_min":94.26691545399,"perigee_km":481.05028751198,"apogee_km":485.06408611126,"semimajor_km":6861.1941868116,"source":"CELESTRAK","updated_at":"2026-05-25T13:38:21.248953Z"}}